LROD Weather Reports


time (UTC)temp
C
wind
direction
speed
KPH
gust
KPH
rain 1hr
cm
rain 24hr
cm
rain mn
cm
humidity
%
barometer
mb
20260506073329 20 210 27.4 0.0 0.00 0.00 0.00 46 1013.0
20260506071829 20 220 25.7 0.0 0.00 0.00 0.00 46 1013.0
20260506070329 20 220 25.7 0.0 0.00 0.00 0.00 46 1013.0
20260506061829 18 200 20.9 0.0 0.00 0.00 0.00 46 1013.0
20260506060331 18 200 20.9 0.0 0.00 0.00 0.00 46 1013.0
20260506050343 15 150 4.8 0.0 0.00 0.00 0.00 59 1013.0
20260506044845 12 150 8.0 0.0 0.00 0.00 0.00 63 1013.0
20260506043333 12 130 9.7 0.0 0.00 0.00 0.00 63 1013.0
20260506041830 12 110 11.3 0.0 0.00 0.00 0.00 63 1013.0
20260506040329 12 110 11.3 0.0 0.00 0.00 0.00 63 1013.0
20260506034830 10 110 8.0 0.0 0.00 0.00 0.00 71 1013.0
20260506033329 10 110 8.0 0.0 0.00 0.00 0.00 71 1013.0
20260506031829 11 120 8.0 0.0 0.00 0.00 0.00 67 1013.0
20260506030329 11 120 8.0 0.0 0.00 0.00 0.00 67 1013.0
20260506024829 11 100 11.3 0.0 0.00 0.00 0.00 67 1012.0
20260506023329 11 100 11.3 0.0 0.00 0.00 0.00 67 1012.0
20260506021829 11 110 8.0 0.0 0.00 0.00 0.00 67 1012.0
20260506020329 11 110 8.0 0.0 0.00 0.00 0.00 67 1012.0
20260506014829 10 1.6 0.0 0.00 0.00 0.00 67 1012.0
20260506013330 10 1.6 0.0 0.00 0.00 0.00 67 1012.0
20260506011830 12 180 9.7 0.0 0.00 0.00 0.00 58 1012.0
20260506010329 12 180 9.7 0.0 0.00 0.00 0.00 58 1012.0
20260506004829 11 150 4.8 0.0 0.00 0.00 0.00 62 1012.0
20260506003448 11 150 4.8 0.0 0.00 0.00 0.00 62 1012.0
20260506001830 11 270 4.8 0.0 0.00 0.00 0.00 62 1012.0
20260506000330 11 270 4.8 0.0 0.00 0.00 0.00 62 1012.0
20260505234829 12 3.2 0.0 0.00 0.00 0.00 63 1012.0
20260505233329 12 3.2 0.0 0.00 0.00 0.00 63 1012.0
20260505231829 15 100 12.9 0.0 0.00 0.00 0.00 48 1011.0
20260505230329 15 100 12.9 0.0 0.00 0.00 0.00 48 1011.0
20260505224829 15 100 14.5 0.0 0.00 0.00 0.00 48 1011.0
20260505223329 15 100 14.5 0.0 0.00 0.00 0.00 48 1011.0
20260505221826 15 110 12.9 0.0 0.00 0.00 0.00 48 1011.0
20260505220329 15 110 12.9 0.0 0.00 0.00 0.00 48 1011.0
20260505214830 16 110 11.3 0.0 0.00 0.00 0.00 45 1011.0
20260505213329 16 110 11.3 0.0 0.00 0.00 0.00 45 1011.0
20260505211829 16 100 12.9 0.0 0.00 0.00 0.00 42 1011.0
20260505210329 16 100 12.9 0.0 0.00 0.00 0.00 42 1011.0
20260505204831 17 110 11.3 0.0 0.00 0.00 0.00 39 1011.0
20260505203329 17 110 11.3 0.0 0.00 0.00 0.00 39 1011.0
20260505201900 18 140 11.3 0.0 0.00 0.00 0.00 32 1011.0
20260505200330 18 140 11.3 0.0 0.00 0.00 0.00 32 1011.0
20260505194829 17 140 9.7 0.0 0.00 0.00 0.00 37 1011.0
20260505193329 17 140 9.7 0.0 0.00 0.00 0.00 37 1011.0
20260505191829 17 170 12.9 0.0 0.00 0.00 0.00 34 1011.0
20260505190329 17 170 12.9 0.0 0.00 0.00 0.00 34 1011.0
20260505184830 17 200 12.9 0.0 0.00 0.00 0.00 39 1011.0
20260505183329 17 200 12.9 0.0 0.00 0.00 0.00 39 1011.0
20260505181830 18 200 12.9 0.0 0.00 0.00 0.00 32 1011.0
20260505180329 18 200 12.9 0.0 0.00 0.00 0.00 32 1011.0
20260505174827 22 210 12.9 0.0 0.00 0.00 0.00 27 1011.0
20260505173329 22 210 12.9 0.0 0.00 0.00 0.00 27 1011.0
20260505171829 23 220 14.5 0.0 0.00 0.00 0.00 22 1011.0
20260505170329 23 220 14.5 0.0 0.00 0.00 0.00 22 1011.0
20260505164829 26 220 20.9 0.0 0.00 0.00 0.00 18 1011.0
20260505163329 26 220 20.9 0.0 0.00 0.00 0.00 18 1011.0
20260505161830 27 230 20.9 0.0 0.00 0.00 0.00 18 1011.0
20260505160330 27 230 20.9 0.0 0.00 0.00 0.00 18 1011.0
20260505153329 27 220 22.5 0.0 0.00 0.00 0.00 18 1011.0
20260505151837 27 230 20.9 0.0 0.00 0.00 0.00 18 1011.0
20260505150330 27 230 20.9 0.0 0.00 0.00 0.00 18 1011.0
20260505140329 27 200 22.5 0.0 0.00 0.00 0.00 17 1012.0
20260505124829 27 200 17.7 0.0 0.00 0.00 0.00 20 1013.0
20260505123329 27 200 17.7 0.0 0.00 0.00 0.00 20 1013.0
20260505121829 27 220 16.1 0.0 0.00 0.00 0.00 20 1013.0
20260505120337 27 220 20.9 0.0 0.00 0.00 0.00 20 1014.0
20260505114837 27 220 20.9 0.0 0.00 0.00 0.00 20 1014.0
20260505113400 27 220 20.9 0.0 0.00 0.00 0.00 20 1014.0
20260505111829 26 230 14.5 0.0 0.00 0.00 0.00 21 1014.0
20260505110329 26 230 14.5 0.0 0.00 0.00 0.00 21 1014.0
20260505101830 25 240 12.9 0.0 0.00 0.00 0.00 22 1015.0
20260505100329 25 240 12.9 0.0 0.00 0.00 0.00 22 1015.0
20260505094830 25 240 14.5 0.0 0.00 0.00 0.00 24 1015.0
20260505093329 25 240 14.5 0.0 0.00 0.00 0.00 24 1015.0
20260505091829 25 220 9.7 0.0 0.00 0.00 0.00 24 1015.0
20260505090329 25 220 9.7 0.0 0.00 0.00 0.00 24 1015.0
20260505084829 23 230 9.7 0.0 0.00 0.00 0.00 25 1015.0
20260505083330 23 230 9.7 0.0 0.00 0.00 0.00 25 1015.0
20260505081830 22 220 8.0 0.0 0.00 0.00 0.00 29 1015.0
20260505080329 22 220 8.0 0.0 0.00 0.00 0.00 29 1015.0